Weather History for Pompano Beach, FL

Change the Weather History Date:

Wednesday, May 1, 2013

  Actual Average Record
Temperature  
Mean Temperature 76 °F -  
Max Temperature 82 °F 85 °F 99 °F (1971)
Min Temperature 71 °F 68 °F 55 °F (1952)
Cooling Degree Days 12    
Growing Degree Days 26 (Base 50)    
Moisture  
Dew Point 72 °F    
Average Humidity 86    
Maximum Humidity 100    
Minimum Humidity 69    
Precipitation  
Precipitation 0.01 in - - ()
Sea Level Pressure  
Sea Level Pressure 29.97 in    
Wind  
Wind Speed 5 mph (East)    
Max Wind Speed 14 mph    
Max Gust Speed 23 mph    
Visibility 9 miles    
Events Rain    
Averages and records for this station are not official NWS values.
T = Trace of Precipitation, MM = Missing Value Source: NWS Daily Summary

Daily Weather History Graph

Daily Weather History Graph

Search for Another Location

Airport:

Trip Planner

Search our weather history database for the weather conditions in past years. The results will help you decide how hot, cold, wet, or windy it might be!

Date:

Astronomy

May. 01, 2013 Rise Set
Actual Time 6:42 AM EDT 7:52 PM EDT
Civil Twilight 6:18 AM EDT 8:16 PM EDT
Nautical Twilight 5:49 AM EDT 8:45 PM EDT
Astronomical Twilight 5:19 AM EDT 9:15 PM EDT
Moon 12:59 AM EDT (5/1) 12:19 PM EDT (5/1)
Length of Visible Light 13h 58m
Length of Day
13h 09m
Waning Gibbous, 59% of the Moon is Illuminated
May 1
Waning Gibbous
May 2
Last Quarter
May 9
New
May 18
First Quarter
May 25
Full

Hourly Weather History & Observations

Time (EDT) Temp. Heat Index Dew Point Humidity Pressure Visibility Wind Dir Wind Speed Gust Speed Precip Events Conditions
12:53 AM 71.1 °F - 70.0 °F 96% 29.99 in 10.0 mi Calm Calm - N/A   Partly Cloudy
1:53 AM 75.0 °F - 71.1 °F 87% 29.97 in 10.0 mi ESE 6.9 mph - N/A   Scattered Clouds
2:53 AM 75.0 °F - 71.1 °F 87% 29.95 in 10.0 mi SE 5.8 mph - N/A   Partly Cloudy
3:53 AM 75.0 °F - 71.1 °F 87% 29.94 in 10.0 mi SE 3.5 mph - N/A   Clear
4:53 AM 75.0 °F - 72.0 °F 90% 29.95 in 10.0 mi ENE 3.5 mph - N/A   Mostly Cloudy
5:02 AM 75.2 °F - 71.6 °F 89% 29.94 in 10.0 mi East 3.5 mph - N/A   Overcast
5:17 AM 75.2 °F - 71.6 °F 89% 29.94 in 10.0 mi ESE 4.6 mph - N/A   Overcast
5:53 AM 75.0 °F - 71.1 °F 87% 29.94 in 10.0 mi SE 4.6 mph - N/A   Clear
6:53 AM 75.0 °F - 71.1 °F 87% 29.96 in 10.0 mi ESE 4.6 mph - N/A   Partly Cloudy
7:53 AM 78.1 °F - 72.0 °F 81% 29.99 in 10.0 mi ESE 4.6 mph - N/A   Clear
8:14 AM 77.0 °F - 71.6 °F 83% 29.98 in 10.0 mi Calm Calm - N/A   Mostly Cloudy
8:38 AM 78.8 °F - 71.6 °F 78% 29.98 in 10.0 mi East 6.9 mph - N/A   Overcast
8:53 AM 79.0 °F - 71.1 °F 77% 29.98 in 10.0 mi East 6.9 mph - N/A   Mostly Cloudy
9:53 AM 80.1 °F 83.8 °F 72.0 °F 76% 29.99 in 10.0 mi ESE 8.1 mph - N/A   Clear
10:53 AM 80.1 °F 83.6 °F 71.1 °F 74% 30.01 in 10.0 mi ESE 9.2 mph - N/A   Mostly Cloudy
11:53 AM 81.0 °F 84.9 °F 71.1 °F 72% 30.01 in 10.0 mi SE 10.4 mph - N/A   Partly Cloudy
12:53 PM 82.0 °F 86.3 °F 71.1 °F 69% 29.99 in 10.0 mi SE 9.2 mph - N/A   Partly Cloudy
1:53 PM 82.0 °F 86.3 °F 71.1 °F 69% 29.96 in 10.0 mi East 12.7 mph - N/A   Mostly Cloudy
2:53 PM 81.0 °F 84.9 °F 71.1 °F 72% 29.96 in 10.0 mi SE 13.8 mph - N/A   Overcast
3:53 PM 78.1 °F - 73.0 °F 84% 29.96 in 10.0 mi SE 8.1 mph - N/A Rain Light Rain
4:53 PM 78.1 °F - 72.0 °F 81% 29.96 in 10.0 mi Calm Calm - N/A Rain Light Rain
5:09 PM 78.8 °F - 73.4 °F 83% 29.96 in 1.0 mi West 13.8 mph 21.9 mph 0.06 in Rain Rain
5:17 PM 73.4 °F - 71.6 °F 94% 29.98 in 2.0 mi Variable 3.5 mph 23.0 mph 0.28 in Rain Heavy Rain
5:35 PM 73.4 °F - 71.6 °F 94% 29.93 in 6.0 mi ENE 9.2 mph - N/A Rain Rain
5:53 PM 73.0 °F - 72.0 °F 96% 29.94 in 8.0 mi NE 6.9 mph - N/A Rain Light Rain
6:53 PM 73.0 °F - 73.0 °F 100% 29.96 in 10.0 mi East 3.5 mph - 0.01 in   Overcast
7:53 PM 73.0 °F - 73.0 °F 100% 29.96 in 10.0 mi NNE 3.5 mph - 0.00 in   Overcast
8:53 PM 73.0 °F - 73.0 °F 100% 29.97 in 10.0 mi NNW 5.8 mph - N/A   Mostly Cloudy
9:53 PM 72.0 °F - 71.1 °F 97% 29.97 in 10.0 mi NNE 3.5 mph - N/A   Scattered Clouds
10:53 PM 73.0 °F - 72.0 °F 96% 29.98 in 10.0 mi ENE 4.6 mph - N/A   Mostly Cloudy
11:53 PM 75.0 °F - 72.0 °F 90% 29.96 in 10.0 mi ENE 4.6 mph - N/A   Overcast